Showing default

KUIPER-00476, 68874

Orbit data source: Space-Track

KUIPER-00476, 68874 is an American payload satellite in LEO that was launched on Tue, 28 Apr 2026 UTC launched from the Air Force Eastern Test Range (AFETR). Payload-class satellites include a variety of spacecraft equipped with specific instruments for various scientific and technological missions. These include communications satellites like Starlink; space stations such as the ISS; scientific satellites like the Hubble; Earth observation satellites from companies like Planet Labs, Umbra, and HawkEye 360; GPS; miniature CubeSats for education and research; and military/defense satellites.

Loading next visibility...
Identifier
68874, 2026-095L
Orbit
LEO
Country
Flag of USUS
Related business
None
Manufacturer
Unknown
Mission
Operational spacecraft
Bus & Motor
Unknown
Mass
Unknown
Launch date (UTC)
2026-04-28 (4 days ago)
Launch vehicle
Unknown
Launch site
Air Force Eastern Test Range (AFETR)
Object type
Payload
Rocket body
Debris
Shape & HBR
Unknown
Radar Cross Section
RCS unknown

Expand to show TLE details & history
Last TLE update: 7 hours ago

TLE from 7 hours ago
0 KUIPER-00476
1 68874U 26095L   26122.16670139 -.00004114  00000-0 -10363-3 0  9999
2 68874  51.8727 104.9455 0010016 127.6494  59.9761 15.36244058  1831
Epoch: 2026-05-02T04:00Z
TLE epoch observation values (Epoch: 2026-05-02T04:00:03.000Z)
Latitude
-6.18386°
Longitude
9.69574°
Altitude
455.58 km
Speed
7.642 km/s
True Right ascension
19h 19m 11s
True Declination
-6° 08' 44"
Sunlit
Object was in daylight at epoch
Visualization orbit readout
Latitude
Unknown
Longitude
Unknown
Altitude
Unknown
Speed
Unknown
Apparent Right ascension
Unknown
Apparent Declination
Unknown
Sunlit
N/A
Visualization observer readout
Local Sidereal Time
18:38:38
Azimuth
Unknown
Elevation
Unknown
Doppler factor
Unknown
Orbital elements
Apogee altitude
464.541 km
Perigee altitude
450.848 km
Semi-major axis
6,835.832 km
Eccentricity
0.001
Inclination
51.8727°
RAAN
104.9455°
Arg. of periapsis
127.6494°
True anomaly
60.07554°
Mean anomaly
59.9761°
Eccentric anomaly
60.02581°
Mean motion
3.84022 °/min
Orbital period
93.74 mins
BSTAR
-0.00010363
Loading maneuver chart data...
Computing Atmospheric mass density...
Loading historical data...
Loading historical data...
Loading historical data...
Loading historical data...
Loading historical data...
Loading historical data...
Loading historical data...

Documentation

Showing up to 5 results
|